User: anonymous
Location: Unspecified
(0.0000°N, 0.0000°E)
Time: 12:08:52
(UTC+02:00)
Language:

OPAL - Orbit

View from above orbital plane
View from above orbital plane
View from above satellite
View from above satellite

Ground track
Ground track

The orbit data is extracted from the following two-line orbital elements,

1 26063U 00004C   14232.45297903  .00000025  00000-0  28699-4 0   370
2 26063 100.2206 030.3486 0036187 337.8733 022.0883 14.36387203763245
Epoch (UTC): 20 August 2014 10:52:17
Eccentricity: 0.0036187
inclination: 100.2206°
perigee height: 744 km
apogee height: 796 km
right ascension of ascending node: 30.3486°
argument of perigee: 337.8733°
revolutions per day: 14.36387203
mean anomaly at epoch: 22.0883°
orbit number at epoch: 76324

The dashed part of the orbit path shows where the satellite is in the earth's shadow,  

DLR